EW3845 Weather Reports


Display with metric or nautical units.
time (UTC)temp
F
wind
direction
speed
MPH
gust
MPH
rain 1hr
in
rain 24hr
in
rain mn
in
humidity
%
barometer
mb
20260503013011 57 42 0.0 0.0 0.00 0.31 0.00 95 1011.5
20260503011502 56 41 0.0 0.0 0.00 0.31 0.00 94 1011.9
20260503010001 57 41 0.0 0.0 0.00 0.31 0.00 94 1012.1
20260503004607 56 42 0.0 0.0 0.00 0.31 0.00 94 1012.1
20260503003101 56 55 0.0 0.0 0.00 0.31 0.00 94 1012.4
20260503001557 56 64 0.0 0.0 0.00 0.31 0.00 94 1012.5
20260503000056 56 115 0.0 0.0 0.00 0.31 0.00 94 1012.8
20260502234612 56 115 0.0 0.0 0.00 0.31 0.00 94 1012.8
20260502233057 57 115 0.0 0.0 0.00 0.31 0.00 94 1012.7
20260502231552 57 115 0.0 0.0 0.00 0.31 0.00 94 1012.7
20260502230057 57 115 0.0 0.0 0.00 0.31 0.00 94 1012.8
20260502224548 57 116 0.0 0.0 0.00 0.31 0.00 94 1013.0
20260502223059 57 115 0.0 0.0 0.00 0.31 0.00 94 1013.0
20260502221546 57 115 0.0 0.0 0.00 0.31 0.00 93 1013.1
20260502220047 57 115 0.0 0.0 0.00 0.31 0.31 93 1013.2
20260502214547 57 115 0.0 0.0 0.00 0.31 0.31 93 1013.1
20260502213048 57 144 0.0 0.0 0.00 0.31 0.31 93 1013.0
20260502211542 57 19 0.0 0.0 0.00 0.31 0.31 93 1013.1
20260502210042 57 17 0.0 0.0 0.00 0.31 0.31 92 1013.3
20260502204541 58 22 0.0 0.0 0.00 0.31 0.31 92 1013.3
20260502203046 58 124 0.0 0.0 0.01 0.31 0.31 91 1013.5
20260502201541 58 40 0.0 0.0 0.12 0.31 0.31 91 1013.4
20260502200038 58 39 0.0 0.0 0.15 0.31 0.31 90 1013.6
20260502194538 58 39 0.0 0.0 0.20 0.31 0.31 90 1013.9
20260502193053 59 40 0.0 0.0 0.22 0.30 0.30 89 1014.2
20260502191539 59 40 0.0 0.0 0.16 0.19 0.19 87 1014.1
20260502190042 60 147 0.0 0.0 0.16 0.16 0.16 86 1013.5
20260502184543 61 157 0.0 0.0 0.10 0.10 0.10 84 1014.0
20260502183034 63 157 0.0 0.0 0.08 0.08 0.08 81 1014.1
20260502181535 66 165 0.0 0.0 0.03 0.03 0.03 75 1014.6
20260502163024 71 32 0.0 0.0 0.00 0.00 0.00 67 1013.8
20260502161523 72 40 0.0 0.0 0.00 0.00 0.00 65 1013.9
20260502160120 72 88 0.0 0.0 0.00 0.00 0.00 69 1014.4
20260502152054 72 111 0.0 0.0 0.00 0.00 0.00 69 1015.0
20260502151645 71 75 0.0 0.0 0.00 0.00 0.00 70 1014.8
20260502151545 72 75 0.0 0.0 0.00 0.00 0.00 71 1015.2
20260502151056 72 78 0.0 0.0 0.00 0.00 0.00 72 1015.2
20260502123047 80 294 0.0 0.0 0.00 0.00 0.00 51 1016.5
20260502121546 81 182 0.0 0.0 0.00 0.00 0.00 52 1016.5
20260502114541 80 291 0.0 0.0 0.00 0.00 0.00 54 1016.9
20260502113043 78 290 0.0 0.0 0.00 0.00 0.00 55 1017.2
20260502111535 77 291 0.0 0.0 0.00 0.00 0.00 54 1017.3
20260502110037 78 153 0.0 0.0 0.00 0.00 0.00 53 1017.4
20260502104535 78 194 0.0 0.0 0.00 0.00 0.00 53 1017.7
20260502103028 77 247 0.0 0.0 0.00 0.00 0.00 55 1017.9
20260502101526 77 210 0.0 0.0 0.00 0.00 0.00 55 1018.0
20260502091516 69 130 0.0 0.0 0.00 0.00 0.00 60 1018.7
20260502064547 57 43 0.0 0.0 0.00 0.00 0.00 71 1018.9
20260502063042 56 186 0.0 0.0 0.00 0.00 0.00 71 1018.9
20260502061516 56 189 0.0 0.0 0.00 0.00 0.00 71 1018.9
20260502061113 56 46 0.0 0.0 0.00 0.00 0.00 71 1019.0
20260502060006 55 30 0.0 0.0 0.00 0.00 0.00 73 1018.8
20260502054501 53 47 0.0 0.0 0.00 0.00 0.00 75 1018.6
20260502053100 52 19 0.0 0.0 0.00 0.00 0.00 76 1018.7
20260502051603 51 72 0.0 0.0 0.00 0.00 0.00 76 1018.9
20260502050058 51 174 0.0 0.0 0.00 0.00 0.00 75 1018.7
20260502044558 50 184 0.0 0.0 0.00 0.00 0.00 76 1018.6
20260502043111 50 153 0.0 0.0 0.00 0.00 0.00 76 1018.6
20260502041619 50 150 0.0 0.0 0.00 0.00 0.00 76 1018.7
20260502040059 50 133 0.0 0.0 0.00 0.00 0.00 75 1018.7
20260502034552 51 136 0.0 0.0 0.00 0.00 0.00 74 1019.0
20260502033050 51 173 0.0 0.0 0.00 0.00 0.00 73 1018.9
20260502031547 52 173 0.0 0.0 0.00 0.00 0.00 72 1019.2
20260502030101 52 173 0.0 0.0 0.00 0.00 0.00 71 1019.2
20260502024556 52 94 0.0 0.0 0.00 0.00 0.00 71 1019.3
20260502023105 52 132 0.0 0.0 0.00 0.00 0.00 71 1019.4
20260502021543 52 132 0.0 0.0 0.00 0.00 0.00 70 1019.5
20260502020041 53 130 0.0 0.0 0.00 0.00 0.00 69 1019.5
20260502014541 53 74 0.0 0.0 0.00 0.00 0.00 68 1019.5